status,avgMeasuredTime,avgSpeed,extID,medianMeasuredTime,TIMESTAMP,vehicleCount,_id,REPORT_ID
OK,90,30,951,90,2014-08-01T08:00:00,4,20747006,203610
OK,91,29,951,91,2014-08-01T08:05:00,3,20747455,203610
OK,94,29,951,94,2014-08-01T08:10:00,1,20747828,203610
OK,73,37,951,73,2014-08-01T08:15:00,2,20748277,203610
OK,56,48,951,56,2014-08-01T08:20:00,3,20748726,203610
OK,57,47,951,57,2014-08-01T08:25:00,2,20749175,203610
OK,59,46,951,59,2014-08-01T08:30:00,0,20749624,203610
OK,59,46,951,59,2014-08-01T08:35:00,0,20750073,203610
OK,59,46,951,59,2014-08-01T08:40:00,0,20750522,203610
OK,59,46,951,59,2014-08-01T08:45:00,0,20750971,203610
OK,74,36,951,74,2014-08-01T08:50:00,1,20751420,203610
OK,74,36,951,74,2014-08-01T08:55:00,1,20751869,203610
OK,74,36,951,74,2014-08-01T09:00:00,0,20752318,203610
OK,74,36,951,74,2014-08-01T09:05:00,0,20752767,203610
OK,74,36,951,74,2014-08-01T09:10:00,0,20753216,203610
OK,74,36,951,74,2014-08-01T09:20:00,0,20754114,203610
OK,74,36,951,74,2014-08-01T09:25:00,0,20754563,203610
OK,74,36,951,74,2014-08-01T09:30:00,0,20755012,203610
OK,74,36,951,74,2014-08-01T09:35:00,0,20755461,203610
OK,74,36,951,74,2014-08-01T09:40:00,0,20755910,203610
OK,69,39,951,69,2014-08-01T09:45:00,2,20756359,203610
OK,68,40,951,68,2014-08-01T09:50:00,4,20756808,203610
OK,60,45,951,60,2014-08-01T09:55:00,2,20757257,203610
OK,75,36,951,75,2014-08-01T10:00:00,0,20757706,203610
OK,75,36,951,75,2014-08-01T10:05:00,3,20758155,203610
OK,75,36,951,75,2014-08-01T10:10:00,3,20758604,203610
OK,75,36,951,75,2014-08-01T10:15:00,0,20759053,203610
OK,75,36,951,75,2014-08-01T10:20:00,0,20759502,203610
OK,75,36,951,75,2014-08-01T10:25:00,0,20759951,203610
OK,75,36,951,75,2014-08-01T10:30:00,0,20760400,203610
OK,57,47,951,57,2014-08-01T10:35:00,1,20760849,203610
OK,48,56,951,48,2014-08-01T10:40:00,3,20761298,203610
OK,67,40,951,67,2014-08-01T10:45:00,4,20761747,203610
OK,86,31,951,86,2014-08-01T10:50:00,1,20762196,203610
OK,86,31,951,86,2014-08-01T10:55:00,0,20762645,203610
OK,86,31,951,86,2014-08-01T11:00:00,0,20763094,203610
OK,56,48,951,56,2014-08-01T11:05:00,1,20763543,203610
OK,56,48,951,56,2014-08-01T11:10:00,3,20763992,203610
OK,63,43,951,63,2014-08-01T11:15:00,4,20764440,203610
OK,63,43,951,63,2014-08-01T11:20:00,2,20764889,203610
OK,67,40,951,67,2014-08-01T11:25:00,0,20765338,203610
OK,67,40,951,67,2014-08-01T11:30:00,0,20765787,203610
OK,96,28,951,96,2014-08-01T11:35:00,1,20766236,203610
OK,72,37,951,72,2014-08-01T11:40:00,2,20766685,203610
OK,48,56,951,48,2014-08-01T11:45:00,1,20767134,203610
OK,48,56,951,48,2014-08-01T11:50:00,0,20767583,203610
OK,43,63,951,43,2014-08-01T11:55:00,1,20768032,203610
OK,73,37,951,73,2014-08-01T12:00:00,1,20768481,203610
OK,73,37,951,73,2014-08-01T12:05:00,1,20768930,203610
OK,73,37,951,73,2014-08-01T12:10:00,0,20769379,203610
OK,51,53,951,51,2014-08-01T12:15:00,2,20769828,203610
OK,54,50,951,54,2014-08-01T12:20:00,3,20770277,203610
OK,54,50,951,54,2014-08-01T12:25:00,7,20770726,203610
OK,65,41,951,65,2014-08-01T12:30:00,5,20771175,203610
OK,52,52,951,52,2014-08-01T12:35:00,0,20771624,203610
OK,73,37,951,73,2014-08-01T12:40:00,3,20772073,203610
OK,73,37,951,73,2014-08-01T12:45:00,3,20772522,203610
OK,50,54,951,50,2014-08-01T12:50:00,1,20772971,203610
OK,89,30,951,89,2014-08-01T12:55:00,2,20773420,203610
OK,89,30,951,89,2014-08-01T13:00:00,2,20773869,203610
OK,89,30,951,89,2014-08-01T13:05:00,3,20774318,203610
OK,89,30,951,89,2014-08-01T13:10:00,5,20774767,203610
OK,99,27,951,99,2014-08-01T13:15:00,3,20775216,203610
OK,124,22,951,124,2014-08-01T13:20:00,2,20775665,203610
OK,116,23,951,116,2014-08-01T13:25:00,1,20776114,203610
OK,116,23,951,116,2014-08-01T13:30:00,0,20776563,203610
OK,81,33,951,81,2014-08-01T13:35:00,2,20777012,203610
OK,81,33,951,81,2014-08-01T13:40:00,2,20777461,203610
OK,101,27,951,101,2014-08-01T13:45:00,1,20777910,203610
OK,84,32,951,84,2014-08-01T13:50:00,2,20778359,203610
OK,42,64,951,42,2014-08-01T14:00:00,2,20779257,203610
OK,130,20,951,130,2014-08-01T14:05:00,1,20779706,203610
OK,102,26,951,102,2014-08-01T14:10:00,4,20780155,203610
OK,90,30,951,90,2014-08-01T14:15:00,5,20780604,203610
OK,90,30,951,90,2014-08-01T14:20:00,3,20781053,203610
OK,76,35,951,76,2014-08-01T14:25:00,1,20781502,203610
OK,92,29,951,92,2014-08-01T14:30:00,2,20781951,203610
OK,76,35,951,76,2014-08-01T14:35:00,3,20782400,203610
OK,76,35,951,76,2014-08-01T14:40:00,1,20782849,203610
OK,53,51,951,53,2014-08-01T14:45:00,3,20783298,203610
OK,73,37,951,73,2014-08-01T14:50:00,4,20783747,203610
OK,58,47,951,58,2014-08-01T14:55:00,3,20784196,203610
OK,56,48,951,56,2014-08-01T15:00:00,2,20784645,203610
OK,69,39,951,69,2014-08-01T15:05:00,2,20785094,203610
OK,71,38,951,71,2014-08-01T15:10:00,3,20785543,203610
OK,71,38,951,71,2014-08-01T15:15:00,1,20785992,203610
OK,65,41,951,65,2014-08-01T15:20:00,2,20786441,203610
OK,65,41,951,65,2014-08-01T15:25:00,4,20786890,203610
OK,64,42,951,64,2014-08-01T15:30:00,3,20787339,203610
OK,88,31,951,88,2014-08-01T15:35:00,1,20787788,203610
OK,88,31,951,88,2014-08-01T15:40:00,1,20788237,203610
OK,95,28,951,95,2014-08-01T15:45:00,1,20788686,203610
OK,72,37,951,72,2014-08-01T15:50:00,2,20789135,203610
OK,49,55,951,49,2014-08-01T15:55:00,0,20789584,203610
OK,49,55,951,49,2014-08-01T16:00:00,0,20790033,203610
OK,49,55,951,49,2014-08-01T16:05:00,0,20790482,203610
OK,49,55,951,49,2014-08-01T16:10:00,0,20790931,203610
OK,49,55,951,49,2014-08-01T16:15:00,0,20791380,203610
OK,49,55,951,49,2014-08-01T16:20:00,0,20791829,203610
OK,49,55,951,49,2014-08-01T16:25:00,0,20792278,203610
OK,49,55,951,49,2014-08-01T16:30:00,0,20792727,203610
OK,49,55,951,49,2014-08-01T16:35:00,0,20793176,203610
OK,49,55,951,49,2014-08-01T16:40:00,0,20793625,203610
OK,49,55,951,49,2014-08-01T16:45:00,0,20794074,203610
OK,49,55,951,49,2014-08-01T16:50:00,0,20794523,203610
OK,49,55,951,49,2014-08-01T16:55:00,0,20794972,203610
OK,49,55,951,49,2014-08-01T17:00:00,0,20795421,203610
OK,49,55,951,49,2014-08-01T17:05:00,0,20795870,203610
OK,49,55,951,49,2014-08-01T17:10:00,0,20796319,203610
OK,49,55,951,49,2014-08-01T17:15:00,0,20796768,203610
OK,49,55,951,49,2014-08-01T17:20:00,0,20797217,203610
OK,57,47,951,57,2014-08-01T17:25:00,2,20797666,203610
OK,57,47,951,57,2014-08-01T17:30:00,2,20798115,203610
OK,65,41,951,65,2014-08-01T17:35:00,0,20798564,203610
OK,65,41,951,65,2014-08-01T17:40:00,0,20799013,203610
OK,89,30,951,89,2014-08-01T17:45:00,1,20799462,203610
OK,88,31,951,88,2014-08-01T17:50:00,1,20799911,203610
OK,88,31,951,88,2014-08-01T17:55:00,1,20800360,203610
OK,88,31,951,88,2014-08-01T18:00:00,0,20800809,203610
OK,88,31,951,88,2014-08-01T18:05:00,0,20801258,203610
OK,88,31,951,88,2014-08-01T18:10:00,0,20801707,203610
OK,88,31,951,88,2014-08-01T18:15:00,0,20802156,203610
OK,88,31,951,88,2014-08-01T18:20:00,0,20802605,203610
OK,88,31,951,88,2014-08-01T18:25:00,0,20803054,203610
OK,88,31,951,88,2014-08-01T18:30:00,1,20803503,203610
OK,88,31,951,88,2014-08-01T18:35:00,1,20803952,203610
OK,49,55,951,49,2014-08-01T18:40:00,1,20804401,203610
OK,49,55,951,49,2014-08-01T18:45:00,1,20804850,203610
OK,49,55,951,49,2014-08-01T18:50:00,0,20805299,203610
OK,49,55,951,49,2014-08-01T18:55:00,0,20805748,203610
OK,74,36,951,74,2014-08-01T19:00:00,1,20806197,203610
OK,74,36,951,74,2014-08-01T19:05:00,1,20806646,203610
OK,74,36,951,74,2014-08-01T19:10:00,0,20807095,203610
OK,74,36,951,74,2014-08-01T19:15:00,0,20807544,203610
OK,74,36,951,74,2014-08-01T19:20:00,0,20807993,203610
OK,45,60,951,45,2014-08-01T19:25:00,1,20808442,203610
OK,45,60,951,45,2014-08-01T19:30:00,1,20808891,203610
OK,45,60,951,45,2014-08-01T19:35:00,0,20809340,203610
OK,45,60,951,45,2014-08-01T19:40:00,0,20809789,203610
OK,45,60,951,45,2014-08-01T19:45:00,0,20810238,203610
OK,45,60,951,45,2014-08-01T19:50:00,0,20810687,203610
OK,45,60,951,45,2014-08-01T19:55:00,0,20811136,203610
OK,45,60,951,45,2014-08-01T22:00:00,0,20816865,203610
OK,45,60,951,45,2014-08-01T22:05:00,0,20817291,203610
OK,45,60,951,45,2014-08-02T00:00:00,0,20823304,203610
OK,45,60,951,45,2014-08-02T00:05:00,0,20823753,203610
OK,45,60,951,45,2014-08-02T00:10:00,0,20824202,203610
OK,45,60,951,45,2014-08-02T00:15:00,0,20824651,203610
OK,45,60,951,45,2014-08-02T00:20:00,0,20825100,203610
OK,45,60,951,45,2014-08-02T00:25:00,0,20825549,203610
OK,45,60,951,45,2014-08-02T00:30:00,0,20825998,203610
OK,45,60,951,45,2014-08-02T00:35:00,0,20826447,203610
OK,45,60,951,45,2014-08-02T00:40:00,0,20826896,203610
OK,45,60,951,45,2014-08-02T00:45:00,0,20827345,203610
OK,45,60,951,45,2014-08-02T00:50:00,0,20827794,203610
OK,45,60,951,45,2014-08-02T00:55:00,0,20828243,203610
OK,45,60,951,45,2014-08-02T01:00:00,0,20828692,203610
OK,45,60,951,45,2014-08-02T01:05:00,0,20829141,203610
OK,45,60,951,45,2014-08-02T01:10:00,0,20829590,203610
OK,45,60,951,45,2014-08-02T01:15:00,0,20830039,203610
OK,45,60,951,45,2014-08-02T01:20:00,0,20830488,203610
OK,45,60,951,45,2014-08-02T01:25:00,0,20830937,203610
OK,45,60,951,45,2014-08-02T01:30:00,0,20831386,203610
OK,45,60,951,45,2014-08-02T01:35:00,0,20831835,203610
OK,45,60,951,45,2014-08-02T01:40:00,0,20832284,203610
OK,45,60,951,45,2014-08-02T01:45:00,0,20832733,203610
OK,45,60,951,45,2014-08-02T01:50:00,0,20833182,203610
OK,45,60,951,45,2014-08-02T01:55:00,0,20833631,203610
OK,45,60,951,45,2014-08-02T02:00:00,0,20834080,203610
OK,45,60,951,45,2014-08-02T02:05:00,0,20834529,203610
OK,45,60,951,45,2014-08-02T02:10:00,0,20834978,203610
OK,45,60,951,45,2014-08-02T02:15:00,0,20835427,203610
OK,45,60,951,45,2014-08-02T02:20:00,0,20835876,203610
OK,45,60,951,45,2014-08-02T02:25:00,0,20836325,203610
OK,45,60,951,45,2014-08-02T02:30:00,0,20836774,203610
OK,45,60,951,45,2014-08-02T02:35:00,0,20837223,203610
OK,45,60,951,45,2014-08-02T02:40:00,0,20837672,203610
OK,45,60,951,45,2014-08-02T02:45:00,0,20838121,203610
OK,45,60,951,45,2014-08-02T02:50:00,0,20838570,203610
OK,45,60,951,45,2014-08-02T02:55:00,0,20839019,203610
OK,45,60,951,45,2014-08-02T03:00:00,0,20839468,203610
OK,45,60,951,45,2014-08-02T03:05:00,0,20839917,203610
OK,45,60,951,45,2014-08-02T03:10:00,0,20840366,203610
OK,45,60,951,45,2014-08-02T03:15:00,0,20840815,203610
OK,45,60,951,45,2014-08-02T03:20:00,0,20841264,203610
OK,45,60,951,45,2014-08-02T03:25:00,0,20841713,203610
OK,45,60,951,45,2014-08-02T03:30:00,0,20842162,203610
OK,45,60,951,45,2014-08-02T03:35:00,0,20842611,203610
OK,45,60,951,45,2014-08-02T03:40:00,0,20843060,203610
OK,45,60,951,45,2014-08-02T03:45:00,0,20843509,203610
OK,45,60,951,45,2014-08-02T03:50:00,0,20843958,203610
OK,45,60,951,45,2014-08-02T03:55:00,0,20844407,203610
OK,42,64,951,42,2014-08-02T06:00:00,1,20851861,203610
OK,42,64,951,42,2014-08-02T06:05:00,0,20852310,203610
OK,68,40,951,68,2014-08-02T06:10:00,2,20852759,203610
OK,68,40,951,68,2014-08-02T06:15:00,2,20853208,203610
OK,68,40,951,68,2014-08-02T06:20:00,0,20853657,203610
OK,68,40,951,68,2014-08-02T06:25:00,0,20854106,203610
OK,68,40,951,68,2014-08-02T06:30:00,0,20854555,203610
OK,68,40,951,68,2014-08-02T06:35:00,0,20855004,203610
OK,60,45,951,60,2014-08-02T06:40:00,1,20855453,203610
OK,60,45,951,60,2014-08-02T06:45:00,0,20855902,203610
OK,60,45,951,60,2014-08-02T06:50:00,0,20856351,203610
OK,72,37,951,72,2014-08-02T06:55:00,2,20856800,203610
OK,72,37,951,72,2014-08-02T07:00:00,2,20857249,203610
OK,72,37,951,72,2014-08-02T07:05:00,0,20857698,203610
OK,69,39,951,69,2014-08-02T07:10:00,2,20858147,203610
OK,69,39,951,69,2014-08-02T07:15:00,2,20858596,203610
OK,60,45,951,60,2014-08-02T07:20:00,1,20859045,203610
OK,60,45,951,60,2014-08-02T07:25:00,0,20859494,203610
OK,49,55,951,49,2014-08-02T07:30:00,1,20859943,203610
OK,49,55,951,49,2014-08-02T07:35:00,1,20860392,203610
OK,46,59,951,46,2014-08-02T07:40:00,1,20860841,203610
OK,64,42,951,64,2014-08-02T07:45:00,3,20861290,203610
OK,88,31,951,88,2014-08-02T07:50:00,4,20861739,203610
OK,89,30,951,89,2014-08-02T07:55:00,2,20862188,203610
OK,95,28,951,95,2014-08-02T08:00:00,0,20862637,203610
OK,59,46,951,59,2014-08-02T08:05:00,1,20863086,203610
OK,56,48,951,56,2014-08-02T08:10:00,2,20863535,203610
OK,91,29,951,91,2014-08-02T08:15:00,1,20863984,203610
OK,91,29,951,91,2014-08-02T08:20:00,1,20864433,203610
OK,91,29,951,91,2014-08-02T08:25:00,0,20864882,203610
OK,91,29,951,91,2014-08-02T08:30:00,0,20865331,203610
OK,91,29,951,91,2014-08-02T08:35:00,0,20865780,203610
OK,69,39,951,69,2014-08-02T08:40:00,2,20866229,203610
OK,65,41,951,65,2014-08-02T08:45:00,3,20866678,203610
OK,60,45,951,60,2014-08-02T08:50:00,3,20867127,203610
OK,59,46,951,59,2014-08-02T08:55:00,2,20867576,203610
OK,59,46,951,59,2014-08-02T09:00:00,0,20868025,203610
OK,59,46,951,59,2014-08-02T09:05:00,0,20868474,203610
OK,59,46,951,59,2014-08-02T09:10:00,0,20868923,203610
OK,59,46,951,59,2014-08-02T09:15:00,0,20869372,203610
OK,59,46,951,59,2014-08-02T09:20:00,0,20869821,203610
OK,80,34,951,80,2014-08-02T09:25:00,1,20870270,203610
OK,80,34,951,80,2014-08-02T09:30:00,1,20870719,203610
OK,54,50,951,54,2014-08-02T09:35:00,1,20871168,203610
OK,78,34,951,78,2014-08-02T09:40:00,3,20871617,203610
OK,78,34,951,78,2014-08-02T09:45:00,3,20872066,203610
OK,65,41,951,65,2014-08-02T09:50:00,1,20872515,203610
OK,65,41,951,65,2014-08-02T09:55:00,0,20872964,203610
OK,103,26,951,103,2014-08-02T10:00:00,1,20873413,203610
OK,60,45,951,60,2014-08-02T10:05:00,1,20873862,203610
OK,60,45,951,60,2014-08-02T10:10:00,1,20874311,203610
OK,52,52,951,52,2014-08-02T10:15:00,1,20874760,203610
OK,52,52,951,52,2014-08-02T10:20:00,1,20875209,203610
OK,52,52,951,52,2014-08-02T10:25:00,0,20875658,203610
OK,52,52,951,52,2014-08-02T10:30:00,0,20876107,203610
OK,67,40,951,67,2014-08-02T10:35:00,2,20876556,203610
OK,67,40,951,67,2014-08-02T10:40:00,2,20877005,203610
OK,51,53,951,51,2014-08-02T10:45:00,2,20877454,203610
OK,50,54,951,50,2014-08-02T10:50:00,3,20877903,203610
OK,49,55,951,49,2014-08-02T10:55:00,1,20878352,203610
OK,49,55,951,49,2014-08-02T11:00:00,0,20878801,203610
OK,49,55,951,49,2014-08-02T11:05:00,0,20879250,203610
OK,49,55,951,49,2014-08-02T11:10:00,0,20879699,203610
OK,49,55,951,49,2014-08-02T11:15:00,0,20880148,203610
OK,81,33,951,81,2014-08-02T11:20:00,1,20880597,203610
OK,81,33,951,81,2014-08-02T11:25:00,1,20881046,203610
OK,81,33,951,81,2014-08-02T11:30:00,0,20881495,203610
OK,81,33,951,81,2014-08-02T11:35:00,0,20881944,203610
OK,81,33,951,81,2014-08-02T11:40:00,0,20882393,203610
OK,87,31,951,87,2014-08-02T11:45:00,1,20882842,203610
OK,71,38,951,71,2014-08-02T11:50:00,4,20883291,203610
OK,50,54,951,50,2014-08-02T11:55:00,4,20883740,203610
OK,46,59,951,46,2014-08-02T12:00:00,1,20884189,203610
OK,46,59,951,46,2014-08-02T12:05:00,0,20884638,203610
OK,46,59,951,46,2014-08-02T12:10:00,0,20885087,203610
OK,46,59,951,46,2014-08-02T12:15:00,0,20885536,203610
OK,46,59,951,46,2014-08-02T12:20:00,0,20885985,203610
OK,46,59,951,46,2014-08-02T12:25:00,0,20886434,203610
OK,46,59,951,46,2014-08-02T12:30:00,0,20886883,203610
OK,46,59,951,46,2014-08-02T12:35:00,0,20887332,203610
OK,46,59,951,46,2014-08-02T12:40:00,0,20887781,203610
OK,46,59,951,46,2014-08-02T12:45:00,0,20888230,203610
OK,46,59,951,46,2014-08-02T12:50:00,0,20888679,203610
OK,46,59,951,46,2014-08-02T12:55:00,0,20889128,203610
OK,46,59,951,46,2014-08-02T13:00:00,0,20889577,203610
OK,46,59,951,46,2014-08-02T13:05:00,0,20890026,203610
OK,46,59,951,46,2014-08-02T13:10:00,0,20890475,203610
OK,46,59,951,46,2014-08-02T13:15:00,0,20890924,203610
OK,46,59,951,46,2014-08-02T13:20:00,0,20891373,203610
OK,46,59,951,46,2014-08-02T13:25:00,0,20891822,203610
OK,46,59,951,46,2014-08-02T13:30:00,0,20892271,203610
OK,46,59,951,46,2014-08-02T13:35:00,0,20892720,203610
OK,46,59,951,46,2014-08-02T13:40:00,0,20893169,203610
OK,46,59,951,46,2014-08-02T13:45:00,0,20893618,203610
OK,46,59,951,46,2014-08-02T13:50:00,0,20894067,203610
OK,46,59,951,46,2014-08-02T13:55:00,0,20894516,203610
OK,46,59,951,46,2014-08-02T14:00:00,0,20894965,203610
OK,46,59,951,46,2014-08-02T14:05:00,0,20895414,203610
OK,46,59,951,46,2014-08-02T14:10:00,0,20895863,203610
OK,46,59,951,46,2014-08-02T14:15:00,0,20896312,203610
OK,46,59,951,46,2014-08-02T14:20:00,0,20896761,203610
OK,46,59,951,46,2014-08-02T14:25:00,0,20897210,203610
OK,46,59,951,46,2014-08-02T14:30:00,0,20897659,203610
OK,46,59,951,46,2014-08-02T14:35:00,0,20898108,203610
OK,46,59,951,46,2014-08-02T14:40:00,0,20898557,203610
OK,46,59,951,46,2014-08-02T14:45:00,0,20899006,203610
OK,46,59,951,46,2014-08-02T14:50:00,0,20899455,203610
OK,46,59,951,46,2014-08-02T14:55:00,0,20899904,203610
OK,46,59,951,46,2014-08-02T15:00:00,0,20900353,203610
OK,46,59,951,46,2014-08-02T15:05:00,0,20900802,203610
OK,46,59,951,46,2014-08-02T15:10:00,0,20901251,203610
OK,46,59,951,46,2014-08-02T15:15:00,0,20901700,203610
OK,46,59,951,46,2014-08-02T15:20:00,0,20902149,203610
OK,46,59,951,46,2014-08-02T15:25:00,0,20902598,203610
OK,46,59,951,46,2014-08-02T15:30:00,0,20903047,203610
OK,46,59,951,46,2014-08-02T15:35:00,0,20903496,203610
OK,46,59,951,46,2014-08-02T15:40:00,0,20903945,203610
OK,46,59,951,46,2014-08-02T15:45:00,0,20904394,203610
OK,46,59,951,46,2014-08-02T15:50:00,0,20904843,203610
OK,46,59,951,46,2014-08-02T15:55:00,0,20905292,203610
OK,46,59,951,46,2014-08-02T16:00:00,0,20905741,203610
OK,46,59,951,46,2014-08-02T16:05:00,0,20906190,203610
OK,46,59,951,46,2014-08-02T16:10:00,0,20906639,203610
OK,46,59,951,46,2014-08-02T16:15:00,0,20907088,203610
OK,46,59,951,46,2014-08-02T16:20:00,0,20907537,203610
OK,46,59,951,46,2014-08-02T16:25:00,0,20907986,203610
OK,46,59,951,46,2014-08-02T16:30:00,0,20908435,203610
OK,46,59,951,46,2014-08-02T16:35:00,0,20908884,203610
OK,46,59,951,46,2014-08-02T16:40:00,0,20909333,203610
OK,46,59,951,46,2014-08-02T16:45:00,0,20909782,203610
OK,46,59,951,46,2014-08-02T16:50:00,0,20910231,203610
OK,72,37,951,72,2014-08-02T16:55:00,1,20910680,203610
OK,67,40,951,67,2014-08-02T17:00:00,2,20911129,203610
OK,73,37,951,73,2014-08-02T17:05:00,2,20911578,203610
OK,83,32,951,83,2014-08-02T17:10:00,1,20912027,203610
OK,63,43,951,63,2014-08-02T17:15:00,2,20912476,203610
OK,49,55,951,49,2014-08-02T17:20:00,5,20912925,203610
OK,74,36,951,74,2014-08-02T17:25:00,1,20913374,203610
OK,74,36,951,74,2014-08-02T17:30:00,0,20913823,203610
OK,74,36,951,74,2014-08-02T17:35:00,0,20914272,203610
OK,94,29,951,94,2014-08-02T17:40:00,1,20914721,203610
OK,94,29,951,94,2014-08-02T17:45:00,0,20915170,203610
OK,94,29,951,94,2014-08-02T17:50:00,0,20915619,203610
OK,40,68,951,40,2014-08-02T17:55:00,1,20916068,203610
OK,40,68,951,40,2014-08-02T18:00:00,1,20916517,203610
OK,40,68,951,40,2014-08-02T18:05:00,0,20916966,203610
OK,40,68,951,40,2014-08-02T18:10:00,0,20917415,203610
OK,40,68,951,40,2014-08-02T18:15:00,0,20917864,203610
OK,40,68,951,40,2014-08-02T18:20:00,0,20918313,203610
OK,66,41,951,66,2014-08-02T18:25:00,1,20918762,203610
OK,66,41,951,66,2014-08-02T18:30:00,1,20919211,203610
OK,66,41,951,66,2014-08-02T18:35:00,0,20919660,203610
OK,66,41,951,66,2014-08-02T18:40:00,0,20920109,203610
OK,66,41,951,66,2014-08-02T18:45:00,0,20920558,203610
OK,66,41,951,66,2014-08-02T18:50:00,0,20921007,203610
OK,66,41,951,66,2014-08-02T18:55:00,0,20921456,203610
OK,66,41,951,66,2014-08-02T19:00:00,0,20921905,203610
OK,66,41,951,66,2014-08-02T19:05:00,0,20922354,203610
OK,66,41,951,66,2014-08-02T19:10:00,0,20922803,203610
OK,66,41,951,66,2014-08-02T19:15:00,0,20923252,203610
OK,66,41,951,66,2014-08-02T19:20:00,0,20923701,203610
OK,66,41,951,66,2014-08-02T19:25:00,0,20924150,203610
OK,66,41,951,66,2014-08-02T19:30:00,0,20924599,203610
OK,66,41,951,66,2014-08-02T19:35:00,0,20925048,203610
OK,66,41,951,66,2014-08-02T19:40:00,0,20925497,203610
OK,49,55,951,49,2014-08-02T19:45:00,1,20925946,203610
OK,49,55,951,49,2014-08-02T19:50:00,1,20926395,203610
OK,67,40,951,67,2014-08-02T19:55:00,1,20926844,203610
OK,67,40,951,67,2014-08-02T20:00:00,1,20927293,203610
OK,67,40,951,67,2014-08-02T20:05:00,0,20927742,203610
OK,67,40,951,67,2014-08-02T20:10:00,0,20928191,203610
OK,67,40,951,67,2014-08-02T20:15:00,0,20928640,203610
OK,67,40,951,67,2014-08-02T20:20:00,0,20929089,203610
OK,67,40,951,67,2014-08-02T20:25:00,0,20929538,203610
OK,67,40,951,67,2014-08-02T20:30:00,0,20929987,203610
OK,55,49,951,55,2014-08-02T20:35:00,1,20930436,203610
OK,55,49,951,55,2014-08-02T20:40:00,1,20930885,203610
OK,55,49,951,55,2014-08-02T20:45:00,0,20931334,203610
OK,55,49,951,55,2014-08-02T20:50:00,0,20931783,203610
OK,55,49,951,55,2014-08-02T20:55:00,0,20932232,203610
OK,55,49,951,55,2014-08-02T21:00:00,0,20932681,203610
OK,55,49,951,55,2014-08-02T21:05:00,0,20933130,203610
OK,55,49,951,55,2014-08-02T21:10:00,0,20933579,203610
OK,55,49,951,55,2014-08-02T21:15:00,0,20934028,203610
OK,55,49,951,55,2014-08-02T21:20:00,0,20934477,203610
OK,55,49,951,55,2014-08-02T21:25:00,0,20934926,203610
OK,55,49,951,55,2014-08-02T21:30:00,0,20935375,203610
OK,55,49,951,55,2014-08-02T21:35:00,0,20935824,203610
OK,55,49,951,55,2014-08-02T21:40:00,0,20936273,203610
OK,55,49,951,55,2014-08-02T21:45:00,0,20936722,203610
OK,55,49,951,55,2014-08-02T21:50:00,0,20937171,203610
OK,55,49,951,55,2014-08-02T21:55:00,0,20937620,203610
OK,55,49,951,55,2014-08-02T22:00:00,0,20938069,203610
OK,55,49,951,55,2014-08-02T22:05:00,0,20938518,203610
OK,55,49,951,55,2014-08-02T22:10:00,0,20938967,203610
OK,55,49,951,55,2014-08-02T22:15:00,0,20939416,203610
OK,55,49,951,55,2014-08-02T22:20:00,0,20939865,203610
OK,55,49,951,55,2014-08-02T22:25:00,0,20940314,203610
OK,55,49,951,55,2014-08-02T22:30:00,0,20940763,203610
OK,57,47,951,57,2014-08-02T22:35:00,1,20941212,203610
OK,57,47,951,57,2014-08-02T22:40:00,0,20941661,203610
OK,57,47,951,57,2014-08-02T22:45:00,0,20942110,203610
OK,57,47,951,57,2014-08-02T22:50:00,0,20942559,203610
OK,57,47,951,57,2014-08-02T22:55:00,0,20943008,203610
OK,57,47,951,57,2014-08-02T23:00:00,0,20943457,203610
OK,57,47,951,57,2014-08-02T23:10:00,0,20943906,203610
OK,57,47,951,57,2014-08-02T23:15:00,0,20944355,203610
OK,57,47,951,57,2014-08-02T23:20:00,0,20944804,203610
OK,57,47,951,57,2014-08-02T23:25:00,0,20945253,203610
OK,57,47,951,57,2014-08-02T23:30:00,0,20945702,203610
OK,43,63,951,43,2014-08-02T23:35:00,3,20946151,203610
OK,57,47,951,57,2014-08-02T23:40:00,1,20946600,203610
OK,57,47,951,57,2014-08-02T23:45:00,0,20947049,203610
OK,57,47,951,57,2014-08-02T23:50:00,0,20947498,203610
OK,57,47,951,57,2014-08-02T23:55:00,0,20947947,203610
OK,57,47,951,57,2014-08-03T00:00:00,0,20948396,203610
OK,57,47,951,57,2014-08-03T00:05:00,0,20948845,203610
OK,61,44,951,61,2014-08-03T00:10:00,1,20949293,203610
OK,50,54,951,50,2014-08-03T00:15:00,2,20949742,203610
OK,39,69,951,39,2014-08-03T00:20:00,1,20950191,203610
OK,39,69,951,39,2014-08-03T00:25:00,0,20950640,203610
OK,39,69,951,39,2014-08-03T00:30:00,0,20951089,203610
OK,39,69,951,39,2014-08-03T00:35:00,0,20951538,203610
OK,39,69,951,39,2014-08-03T00:40:00,0,20951987,203610
OK,39,69,951,39,2014-08-03T00:45:00,0,20952436,203610
OK,70,38,951,70,2014-08-03T00:50:00,1,20952885,203610
OK,70,38,951,70,2014-08-03T00:55:00,0,20953334,203610
OK,70,38,951,70,2014-08-03T01:00:00,0,20953783,203610
OK,70,38,951,70,2014-08-03T01:05:00,0,20954232,203610
OK,59,46,951,59,2014-08-03T01:10:00,1,20954681,203610
OK,59,46,951,59,2014-08-03T01:15:00,0,20955130,203610
OK,59,46,951,59,2014-08-03T01:20:00,0,20955579,203610
OK,59,46,951,59,2014-08-03T01:25:00,0,20956028,203610
OK,59,46,951,59,2014-08-03T01:30:00,0,20956477,203610
OK,59,46,951,59,2014-08-03T01:35:00,0,20956926,203610
OK,59,46,951,59,2014-08-03T01:40:00,0,20957375,203610
OK,59,46,951,59,2014-08-03T01:45:00,0,20957824,203610
OK,59,46,951,59,2014-08-03T01:50:00,0,20958273,203610
OK,59,46,951,59,2014-08-03T01:55:00,0,20958722,203610
OK,59,46,951,59,2014-08-03T02:00:00,0,20959171,203610
OK,59,46,951,59,2014-08-03T02:05:00,0,20959620,203610
OK,59,46,951,59,2014-08-03T02:10:00,0,20960069,203610